Torna al catalogo

STARLINK-37011

AttivoComunicazioniSSO
NORAD 68217·PAYLOAD·🇺🇸 United States

Lanciato Mar 17, 2026 da Vandenberg Space Force Base

Loading…

Prossimi Passaggi (prossime 24 ore)

TLE

AggiornatoSource: CelesTrak SupGP

Epoca: Sep 14, 2026, 22:45 UTC

1 68217C 26053L   26257.94840278  .00046911  00000+0  14569-2 0  2578
2 68217  97.2845 131.7889 0001875  95.5158 190.5547 15.33400925    16

Traccia STARLINK-37011 in tempo reale con AllMySat

Download on the App Store